Probability
13 13 14 14 13 16 18 18 20 21 18 12 6 5 6 5 2 0 0 1 0 0 0 0 0 0 0 0 0 0 0 0 0 0 0 0 0 0 0 0 0 0 0
13 14 14 13 13 15 16 16 16 16 14 10 8 6 6 5 2 0 1 1 1 1 0 0 0 0 0 0 0 0 0 0 0 0 0 0 0 0 0 0 0 0 0
10 11 10 10 11 13 14 14 13 12 10 9 9 9 7 5 2 0 1 2 3 2 1 0 0 0 0 0 0 0 0 0 0 0 0 0 0 0 0 0 0 0 0
5 5 5 6 8 11 12 12 12 11 10 10 11 11 9 6 3 1 1 2 3 3 2 1 0 0 0 0 0 0 0 0 0 0 0 0 0 0 0 0 0 0 0
1 2 3 4 6 8 9 11 11 10 9 10 11 11 9 7 4 2 1 1 2 2 2 1 0 0 0 0 0 0 0 0 0 0 0 0 0 0 0 0 0 0 0
1 1 3 4 5 7 8 9 10 9 9 10 10 9 8 6 5 2 1 2 1 1 1 0 0 0 0 0 0 0 0 0 0 0 0 0 0 0 0 0 0 0 0
1 1 3 4 6 7 7 8 8 9 9 10 9 8 6 5 4 3 3 2 1 0 0 0 0 0 0 0 0 0 0 0 0 0 0 0 0 0 0 0 0 0 0
1 0 1 3 4 6 8 9 9 8 8 9 9 8 5 4 4 3 3 2 1 0 0 0 0 0 0 0 0 0 0 0 0 0 0 0 0 0 0 0 0 0 0
0 0 0 1 2 4 7 9 10 9 8 7 8 7 6 4 4 3 1 1 0 0 0 0 0 0 0 0 0 0 0 0 0 0 0 0 0 0 0 0 0 0 0
0 0 0 0 1 2 5 9 11 10 8 7 7 7 7 7 5 3 1 0 0 0 0 0 0 0 0 0 0 0 0 0 0 0 0 0 0 0 0 0 0 0 0
0 0 0 0 0 1 4 8 10 9 8 7 7 7 8 7 5 2 1 0 0 0 0 0 0 0 0 0 0 0 0 0 0 0 0 0 0 0 0 0 0 0 0
0 0 0 0 0 1 3 6 7 8 8 8 8 8 6 4 3 1 0 0 0 0 0 0 0 0 0 0 0 0 0 0 0 0 0 0 0 0 0 0 0 0 0
0 0 0 0 0 0 2 4 4 6 8 9 8 7 4 3 2 1 1 0 0 0 0 0 0 0 0 0 0 0 0 0 0 0 0 0 0 0 0 0 0 0 0
0 0 0 0 0 1 2 3 3 5 8 9 8 6 4 3 3 3 2 1 0 0 0 0 0 0 0 0 0 0 0 0 0 0 0 0 0 0 0 0 0 0 0
0 0 0 0 1 1 2 2 3 4 7 8 6 5 4 4 4 4 4 3 1 0 0 0 0 0 0 0 0 0 0 0 0 0 0 0 0 0 0 0 0 0 0
0 0 0 1 1 1 1 1 2 4 6 6 5 4 4 5 6 6 6 5 2 0 0 0 0 0 0 0 0 0 0 0 0 0 0 0 0 0 0 0 0 0 0
1 1 0 1 2 2 3 2 2 4 5 5 4 4 5 6 6 6 6 6 4 1 0 0 0 0 0 0 0 0 0 0 0 0 0 0 0 0 0 0 0 0 0
3 2 1 1 2 3 5 5 5 5 5 4 4 4 5 6 6 6 6 5 3 1 0 0 0 0 0 0 0 0 0 0 0 0 0 0 0 0 0 0 0 0 0
4 3 2 1 1 2 6 7 6 4 2 2 2 3 4 5 4 4 4 4 2 1 0 0 0 0 0 0 0 0 0 0 0 0 0 0 0 0 0 0 0 0 0
2 1 1 0 0 1 4 6 4 2 1 1 1 2 2 2 2 2 2 2 1 0 0 0 0 0 0 0 0 0 0 0 0 0 0 0 0 0 0 0 0 0 0
1 0 0 0 0 0 2 3 2 1 1 2 2 2 1 0 0 1 1 0 0 0 0 0 0 0 0 0 0 0 0 0 0 0 0 0 0 0 0 0 0 0 0
0 0 0 0 0 0 1 1 1 0 1 1 1 1 0 0 0 0 0 0 0 0 0 0 0 0 0 0 0 0 0 0 0 0 0 0 0 0 0 0 0 0 0
0 0 0 0 0 0 0 0 0 0 0 0 0 0 0 0 0 0 0 0 0 0 0 0 0 0 0 0 0 0 0 0 0 0 0 0 0 0 0 0 0 0 0
0 0 0 0 0 0 0 0 0 0 0 0 0 0 0 0 0 0 0 0 0 0 0 0 0 0 0 0 0 0 0 0 0 0 0 0 0 0 0 0 0 0 0
0 0 0 0 0 0 0 0 0 0 0 0 0 0 0 0 0 0 0 0 0 0 0 0 0 0 0 0 0 0 0 0 0 0 0 0 0 0 0 0 0 0 0
0 0 0 0 0 0 0 0 0 0 0 0 0 0 0 0 0 0 0 0 0 0 0 0 0 0 0 0 0 0 0 0 0 0 0 0 0 0 0 0 0 0 0
Wind_Speed
6 6 6 6 6 6 7 8 8 7 7 5 5 5 4 3 3 3 4 5 5 6 5 4 4 4 3 3 3 3 3 2 1 2 2 3 3 2 2 1 1 1 1
4 6 6 7 7 8 8 7 7 7 7 6 4 3 4 3 3 3 4 5 6 6 6 6 5 4 4 4 3 3 2 2 1 2 2 2 3 3 3 2 2 2 1
7 7 7 7 8 8 9 8 8 9 8 7 4 4 3 3 2 3 3 4 6 6 6 7 5 5 4 4 3 3 4 2 1 1 3 3 2 1 2 3 3 2 2
7 6 6 7 8 9 9 9 9 9 8 8 8 8 6 5 5 4 4 4 5 6 6 6 6 5 4 4 4 3 3 4 2 1 2 1 2 3 1 2 2 3 2
8 7 7 7 7 7 8 9 9 9 8 8 9 8 6 4 3 4 5 4 3 5 6 6 6 5 4 4 4 4 3 2 3 2 2 2 2 2 2 1 2 2 2
7 6 6 5 5 6 6 7 8 8 8 8 8 8 8 7 7 6 6 4 3 3 5 6 5 5 4 5 4 4 4 3 3 2 2 3 2 2 2 2 0 1 2
7 7 7 6 6 7 7 7 8 8 8 8 8 9 9 9 9 8 7 6 4 3 5 6 5 5 5 5 5 4 4 4 4 3 2 2 2 2 3 3 2 0 1
7 8 8 8 7 8 8 8 8 8 8 8 8 8 8 6 6 7 7 7 5 5 6 6 6 6 6 6 5 4 4 3 4 4 3 2 2 2 3 3 3 1 1
8 8 8 8 8 8 8 8 9 8 8 8 8 7 8 7 7 7 6 5 5 5 7 7 7 6 6 6 6 4 4 4 4 4 4 2 2 2 2 2 3 4 2
7 8 8 8 7 7 7 8 8 8 7 8 7 7 7 7 6 6 7 7 6 6 7 7 7 6 6 6 5 4 4 4 3 3 4 3 2 2 2 2 2 2 3
7 7 7 7 6 6 7 7 7 7 7 7 7 7 7 6 6 6 7 7 6 7 8 8 7 7 7 6 6 5 6 5 4 4 5 4 4 3 3 2 2 2 3
6 6 6 6 6 7 7 7 7 7 7 7 6 6 6 6 6 6 6 6 6 7 7 7 7 8 8 7 7 7 7 7 6 6 5 5 4 4 3 3 3 3 4
5 5 5 6 6 6 6 7 7 7 6 7 7 6 6 6 6 6 6 6 6 6 7 7 8 8 8 8 8 8 7 7 7 7 7 6 5 5 4 4 4 3 4
6 6 6 6 6 6 6 6 6 6 7 7 8 8 8 8 7 6 6 6 6 7 7 8 8 8 8 8 8 8 7 7 7 7 7 7 7 7 6 5 5 4 4
6 7 7 6 6 6 5 5 6 6 7 7 8 8 7 7 6 6 6 6 6 7 7 7 7 7 7 7 8 8 8 7 6 6 6 7 8 9 7 5 5 5 4
6 7 6 6 7 7 7 6 6 6 6 7 7 6 5 6 6 6 5 5 5 5 6 7 7 7 7 9 12 9 7 7 7 7 6 6 7 9 10 11 9 8 7
5 6 6 6 6 6 6 6 5 5 6 6 6 6 6 6 6 6 5 6 6 5 5 6 6 6 7 9 11 12 7 6 6 7 6 5 5 6 6 7 8 9 11
4 4 4 4 4 4 4 5 5 5 5 5 5 5 6 6 5 5 6 5 4 5 5 6 6 6 7 9 9 10 7 5 6 6 6 6 5 5 5 5 5 6 7
3 3 3 4 4 4 4 6 5 5 4 4 4 4 5 6 6 6 6 5 5 5 5 4 5 6 6 8 9 8 5 5 6 5 6 6 6 6 6 5 5 6 6
5 5 5 6 6 4 5 7 6 5 3 3 3 3 4 5 5 5 5 4 4 5 4 4 4 5 5 5 8 8 4 4 4 4 4 6 7 6 5 5 5 7 6
7 7 7 7 5 4 6 7 6 4 3 3 3 3 3 3 3 3 2 3 3 3 3 2 2 2 3 4 6 8 5 5 4 4 3 3 6 6 6 6 6 7 6
9 8 8 8 6 6 8 8 6 4 4 5 5 4 3 2 2 2 1 1 2 2 2 2 1 1 1 1 3 6 6 4 4 3 2 2 3 5 6 5 6 7 6
9 7 9 9 8 7 8 8 4 5 6 6 6 5 5 4 3 3 2 1 1 1 1 1 1 1 0 1 1 2 3 4 2 2 2 2 3 3 4 5 6 5 3
8 8 10 10 8 7 8 6 6 6 7 7 6 5 5 5 4 3 2 2 1 1 1 1 1 1 0 0 1 1 1 1 1 1 1 2 2 3 4 4 4 3 4
8 8 9 9 8 7 8 7 6 6 7 6 6 5 4 4 3 3 2 2 1 1 2 1 1 1 1 2 3 2 1 1 1 1 0 1 1 2 2 3 3 3 3
8 9 9 9 8 7 7 6 5 6 7 6 5 4 3 3 2 2 3 5 3 3 2 1 1 1 2 1 1 2 2 2 2 2 2 2 3 3 4 4 4 4 4
Wind_Direction
190 178 171 170 167 165 166 170 169 165 155 151 159 160 166 160 155 159 152 153 153 150 142 137 132 136 135 136 130 113 96 64 56 79 39 16 23 44 34 16 14 358 327
177 177 173 174 176 173 171 170 171 171 172 167 161 161 151 149 148 147 146 155 156 154 152 143 145 144 131 129 134 130 117 76 55 118 103 46 11 7 22 21 32 18 11
187 184 182 184 182 180 178 178 180 182 176 162 144 128 105 98 121 145 157 165 163 158 150 151 148 149 144 149 152 146 139 134 71 68 136 142 186 315 350 12 26 24 32
188 186 185 185 189 189 182 181 179 179 173 165 165 164 167 170 175 163 159 156 161 157 153 154 153 152 149 152 160 149 142 139 140 94 60 100 144 142 77 347 2 19 32
190 187 186 190 188 184 179 179 176 178 173 172 173 172 170 161 140 138 145 148 152 156 158 157 153 153 157 160 153 144 145 143 149 151 139 105 76 87 134 143 339 357 4
189 185 177 173 178 174 175 174 175 178 174 171 170 173 167 157 152 160 161 156 153 155 161 157 157 160 162 165 160 154 151 147 142 146 151 153 149 153 140 147 183 317 324
182 177 173 177 181 177 178 175 169 172 174 172 173 174 171 168 170 169 170 163 164 172 176 166 165 167 172 167 157 155 159 160 156 160 160 160 157 149 142 136 147 205 317
182 184 183 182 184 180 176 172 171 172 175 176 178 177 172 175 178 175 171 176 182 180 173 171 172 174 172 168 161 159 170 167 167 167 159 156 166 165 162 154 148 137 330
186 187 184 184 183 181 180 176 174 174 177 179 174 176 173 177 180 177 173 176 176 172 171 173 173 175 173 168 162 168 175 168 175 174 170 167 176 177 173 161 159 155 183
187 184 182 183 184 180 174 173 175 177 175 175 176 180 178 179 178 172 178 180 178 171 168 175 176 176 177 174 170 171 175 170 178 177 174 178 182 178 172 171 169 164 169
190 186 182 180 176 165 165 174 176 175 174 177 177 173 173 173 173 179 187 185 179 175 177 180 179 182 184 181 180 185 180 183 188 186 188 198 188 186 183 176 174 177 173
181 174 172 167 166 167 169 174 179 182 180 173 164 167 166 167 175 187 191 184 183 183 184 181 183 190 190 187 189 194 191 192 196 199 196 207 199 199 195 191 197 199 197
164 156 155 166 172 173 173 177 180 180 171 164 164 167 171 176 186 191 187 182 184 186 183 182 190 196 194 193 197 198 197 201 204 202 203 209 200 211 208 206 210 212 209
168 166 167 174 174 173 173 176 179 174 166 165 171 180 185 188 191 188 184 185 185 188 191 193 197 198 197 198 199 199 202 205 209 208 209 210 206 214 212 213 218 215 212
170 175 177 176 170 167 171 176 178 174 169 170 181 193 188 183 182 184 188 186 187 195 196 196 200 199 199 203 200 201 205 207 212 213 215 218 217 218 214 216 217 211 216
180 175 172 171 175 178 179 179 180 177 168 175 188 186 173 174 181 185 183 183 187 188 188 196 198 201 211 210 204 200 204 205 210 217 222 227 226 229 229 230 225 211 215
170 171 173 175 180 181 177 175 176 162 165 178 182 175 173 181 188 183 176 184 188 185 187 195 198 210 220 213 207 204 200 206 213 217 220 227 228 221 229 235 238 232 229
143 154 159 162 162 160 161 156 147 148 161 170 177 177 178 184 181 178 186 190 183 186 196 202 204 212 224 215 209 203 201 209 218 219 220 224 234 228 220 229 242 248 246
112 112 117 123 123 130 141 132 129 136 145 158 168 173 174 176 178 188 194 189 185 193 199 202 203 212 228 215 211 202 201 216 226 226 223 222 228 231 222 225 246 262 266
82 86 86 86 93 102 117 120 123 124 139 159 161 154 156 165 179 190 191 186 187 201 206 212 210 217 226 212 204 197 203 219 230 229 227 227 230 234 225 224 236 256 268
81 83 82 80 79 96 110 111 109 118 131 117 109 113 130 150 166 175 179 178 179 183 191 206 216 215 222 215 200 191 196 210 219 229 234 232 230 239 237 229 232 242 258
76 83 85 76 67 82 98 96 92 91 89 91 89 83 77 81 98 100 106 134 161 178 182 187 215 225 217 199 196 194 205 213 214 230 236 240 241 249 251 244 246 254 259
74 77 85 78 64 66 87 95 85 81 84 84 80 74 67 57 56 70 71 68 103 145 164 170 195 229 101 97 131 175 201 214 220 247 258 268 267 270 264 257 262 263 247
71 76 80 77 65 57 66 75 72 76 80 77 70 68 71 62 53 55 68 84 93 116 132 152 190 205 191 178 156 152 178 182 199 254 298 298 286 272 267 274 266 249 243
72 74 79 78 69 62 60 58 68 81 82 76 70 63 58 60 54 49 49 65 64 172 169 191 201 197 224 233 198 182 190 185 181 157 227 267 266 265 266 264 260 259 256
76 76 75 75 69 67 61 51 59 77 82 72 61 59 58 53 56 58 46 44 51 50 75 119 150 206 217 192 175 207 218 216 188 166 232 250 254 259 265 271 277 269 265